Aérodrome :
LOGIN :

S'inscrire | Disclaimer

   EN    FR    IT 

 










Légende :    VFR   VFR Marginal   IFR   IFR Intensif   IFR Très Intensif
Visi : 
Plafond : 
>= 8 km
>= 3000ft
5 à 8 km
1000 à 3000 ft
1500m à 5 km
500 à 1000 ft
800 à 1500m
200 à 500 ft
< 800m
< 200 ft
Symboles :   Orages  Brouillard  Fortes neiges  Fortes précipitations  Vent > 20 kt
SIGMETs :   Divers  Orages  Givrage  Turbulence  Onde Orograph.  Cendres Volcan.







- Altitude de l'aérodrome : 390 ft
- Code IATA : NQY
- Voir les cartes d'approche


EGHQ - Newquay

DERNIER METAR :
  • 171420Z 27014KT 9999 FEW035 19/14 Q1015

METARs EXPIRÉS :
  • 171350Z 27014KT 9999 FEW030 19/13 Q1015
  • 171320Z 27015KT 9999 FEW030 19/13 Q1015
  • 171250Z 27013KT 9999 FEW025 19/13 Q1015
  • 171220Z 27010KT 9999 FEW012 SCT040 18/13 Q1016
  • 171150Z 26012KT 9999 SCT040 17/14 Q1016

TAF TAF EGHQ
Valide du 17 à 15h jusqu'au 17 à 21h UTC


171359Z 1715/1721 26013KT 9999 SCT020
BECMG 1717/1720 BKN007
TEMPO 1717/1721 8000 RA
PROB40
TEMPO 1719/1721 3000 RADZ BKN003
Pas de NOTAMs connus pour ce terrain.



MET'MAP, la Météo Aéronautique d'un coup d'oeil ! - Copyright ORBIFLY Décembre 2007 - Disclaimer

ORBIFLY MET'MAP TEAM :

Programmation & Développement : Alexandra Zaïnal
Conception & Développement : Baudouin d'Aumeries
Co-Programmation & Développement : Marc-Olivier Méhu
Soutien technique & logistique : Manuel Goepfert

Contact : metmap@orbifly.com




SOURCES & CREDITS :

   NOAA